Retour au catalogue

THOR ABLESTAR DEB

ActifLEO
NORAD 658·DEBRIS·🇺🇸 United States

Lancé Jun 29, 1961 depuis Cape Canaveral Space Force Station

Loading…

Prochains Passages (prochaines 24 heures)

TLE

FraisSource: Space-Track

Époque: Sep 14, 2026, 01:49 UTC

1 00658U 61015HK  26257.07631037 -.00000702  00000-0 -77661-3 0  9992
2 00658  65.8621 285.7325 0353387 173.7713 186.7908 13.41724252 71524

Suivez THOR ABLESTAR DEB en temps réel avec AllMySat

Download on the App Store